Flag for USA

Past Weather in 36°09'28"N, 86°44'42"W, USA — Yesterday and Last 2 Weeks

Now
68 °F

Thunderstorms. Fog.


Feels Like: 68 °F
Forecast: 87 / 73 °F
Wind: 12 mph from South

Location: Nashville International Airport

Current Time: Jul 12, 2020 at 9:23:48 am

Latest Report: Jul 12, 2020 at 8:35 am


Visibility: 3 mi

Pressure: 29.91 "Hg

Humidity: 90%

Dew Point: 65 °F

Location of 36°09'28"N, 86°44'42"WLocation

Past Weather in 36°09'28"N, 86°44'42"W — Graph

°F

36°09'28"N, 86°44'42"W Temperature Yesterday

Maximum temperature yesterday: 93 °F (at 2:53 pm)
Minimum temperature yesterday: 71 °F (at 2:53 am)
Average temperature yesterday: 83 °F

High & Low Weather Summary for the Past Weeks

 TemperatureHumidityPressure
High96 °F (Jul 4, 4:53 pm)91% (Jun 30, 10:02 am)30.05 "Hg (Jun 30, 10:02 am)
Low67 °F (Jul 12, 6:25 am)34% (Jul 4, 4:53 pm)29.83 "Hg (Jun 28, 6:53 pm)
Average80 °F69%29.94 "Hg
* Reported Jun 27 7:53 am — Jul 12 7:53 am, 36°09'28"N, 86°44'42"W. Weather by CustomWeather, © 2020

Note: Actual official high and low records may vary slightly from our data, if they occured in-between our weather recording intervals... More about our weather records

36°09'28"N, 86°44'42"W Weather History for the Previous 24 Hours

Scroll right to see more
 ConditionsComfort  
Time TempWeatherWind HumidityBarometerVisibility
7:53 am
Sun, Jul 12
68 °FThunderstorms. Broken clouds.6 mph87%29.89 "Hg10 mi
7:02 am68 °FThundershowers. Broken clouds.12 mph87%29.91 "Hg9 mi
6:53 am67 °FRain. Fog.18 mph90%29.85 "Hg5 mi
6:25 am67 °FThunderstorms. Fog.15 mph90%29.94 "Hg6 mi
6:07 am68 °FRain. Fog.14 mph87%29.97 "Hg4 mi
5:43 am68 °FThundershowers. Fog.16 mph87%29.99 "Hg3 mi
5:31 am68 °FHeavy rain. Fog.15 mph87%29.98 "Hg2 mi
5:09 am69 °FThunderstorms. Mostly cloudy.25 mph84%29.95 "Hg8 mi
4:53 am73 °FThundershowers. Mostly cloudy.16 mph74%29.91 "Hg9 mi
4:25 am75 °FThundershowers. Mostly cloudy.6 mph62%29.89 "Hg10 mi
4:02 am75 °FThunderstorms. Mostly cloudy.6 mph62%29.90 "Hg10 mi
2:53 am74 °FPassing clouds.10 mph67%29.88 "Hg10 mi
1:53 am76 °FPassing clouds.12 mph60%29.90 "Hg10 mi
12:53 am79 °FOvercast.No wind69%29.90 "Hg10 mi
11:53 pm
Sat, Jul 11
77 °FPassing clouds.5 mph74%29.91 "Hg10 mi
10:53 pm78 °FPassing clouds.5 mph71%29.90 "Hg10 mi
9:53 pm83 °FPassing clouds.No wind59%29.91 "Hg10 mi
8:53 pm85 °FPassing clouds.3 mph53%29.90 "Hg10 mi
7:53 pm87 °FPassing clouds.6 mph50%29.89 "Hg10 mi
6:53 pm90 °FPassing clouds.8 mph42%29.89 "Hg10 mi
5:53 pm92 °FPassing clouds.9 mph40%29.89 "Hg10 mi
4:53 pm92 °FPassing clouds.12 mph40%29.92 "Hg10 mi
3:53 pm92 °FPassing clouds.13 mph38%29.94 "Hg10 mi
2:53 pm93 °FPassing clouds.10 mph37%29.95 "Hg10 mi
1:53 pm92 °FPassing clouds.12 mph37%29.96 "Hg10 mi
12:53 pm90 °FSunny.10 mph39%29.98 "Hg10 mi
11:53 am89 °FSunny.9 mph41%29.98 "Hg10 mi
10:53 am88 °FPassing clouds.9 mph40%29.98 "Hg10 mi
9:53 am87 °FSunny.8 mph43%29.98 "Hg10 mi
Weather by CustomWeather, © 2020

See weather overview